www.pogodaiklimat.ru

Погода и климат >> Архив погоды >> Великобритания >> Уоттишам


ПОГОДА в Уоттишаме

  • Прогноз погоды в Уоттишаме
  • Монитор погоды в Уоттишаме

АРХИВ ПОГОДЫ в Уоттишаме

Время (UTC), дата Ветер
(напр.,м/с)
 
Видим.   Явления Облачность Т
(С)
Тd
(С)
f
(%)
Тe
(С)
Тes
(С)
Комфортность P
(гПа)
Po
(гПа)
Тmin
(С)
Tmax
(С)
R
(мм)
R24
(мм)
S
(см)
22 15.07 Ю 2 50 км 1/0
[Ci fib]
+13.1 +11.3 89 +12 +12 1021.6 1010.7
23 15.07 ЮЗ 2 50 км ясно +11.6 +10.2 91 +10 +10 1021.4 1010.5
00 16.07 ЮЗ 2 25 км ясно +10.7 +9.9 95 +9 +9 1021.3 1010.4
01 16.07 ЮЗ 2 9000 м дымка н/о +10.1 +9.7 97 +8 +8 1021.1 1010.1
02 16.07 ЮЗ 2 4300 м дымка н/о +9.7 +9.4 98 +8 +8 1020.7 1009.7
03 16.07 З 3 3100 м дымка н/о +9.3 +9.1 99 +7 +7 1020.2 1009.2
04 16.07 З 3 5000 м дымка н/о +8.9 +8.7 99 +6 +6 1020.1 1009.1
05 16.07 З 3 6000 м дымка н/о +9.4 +9.2 99 +7 +7 1020.0 1009.0
06 16.07 З 3 15 км 5/0
[Ci fib]
+11.5 +11.4 99 +10 +11 1020.0 1009.1 +8.7
07 16.07 З 3 20 км 4/0
[Ci fib]
+14.8 +13.1 90 +14 +18 1020.1 1009.3
08 16.07 СЗ 4 30 км 5/0
[Ci sp]
+19.0 +12.5 66 +20 +25 1019.9 1009.2
09 16.07 СЗ 2 40 км 3/0
[Cc]
+19.8 +12.0 61 +22 +32 комфорт 1019.5 1008.8
10 16.07 С 4 40 км 3/1 1050 м
[Cu hum Ac trans Ci fib]
+21.1 +12.0 56 +23 +31 комфорт 1019.0 1008.4
11 16.07 СЗ 4 40 км 3/3 1200 м
[Cu hum Ci fib]
+22.0 +12.1 53 +24 +32 комфорт 1018.8 1008.3
12 16.07 СЗ 3 40 км 3/3 1320 м
[Cu hum]
+23.4 +11.9 48 +26 +36 жарко 1018.4 1007.9
13 16.07 С 3 40 км 3/3 1440 м
[Cu med, cong]
+24.0 +11.2 45 +25 +35 комфорт 1018.0 1007.5
14 16.07 С 2 40 км 1/1 1500 м
[Cu med, cong]
+23.8 +12.1 48 +26 +39 жарко 1017.8 1007.3
15 16.07 СЗ 2 40 км 1/1 1500 м
[Cu hum]
+25.4 +11.5 42 +27 +37 жарко 1017.2 1006.8
16 16.07 В 4 40 км 1/1 1500 м
[Cu hum]
+24.0 +11.7 46 +26 +30 жарко 1016.9 1006.4
17 16.07 ЮВ 6 40 км 1/1 1500 м
[Cu hum]
+22.5 +13.0 55 +25 +27 комфорт 1016.9 1006.4
18 16.07 ЮВ 6 40 км 1/1 1500 м
[Cu hum]
+21.3 +13.2 60 +24 +24 комфорт 1017.1 1006.6 +25.9
19 16.07 ЮВ 5 40 км 3/0
[Ac cuf]
+19.6 +12.7 64 +21 +21 комфорт 1017.2 1006.6
20 16.07 Ю 4 40 км 6/3 2000 м
[Cu hum Ac cuf]
+18.5 +12.4 68 +19 +19 1017.1 1006.4
21 16.07 ЮВ 4 40 км 6/0
[Ac cuf]
+17.4 +12.6 73 +17 +17 1017.5 1006.8
22 16.07 ЮВ 4 30 км 9/0
[Ac cuf]
+16.8 +13.0 78 +16 +16 1017.4 1006.7
23 16.07 ЮВ 4 25 км 4/0
[Ac cuf]
+16.1 +13.7 86 +15 +15 1017.3 1006.6
00 17.07 Ю 4 20 км н/о +16.4 +14.0 86 +16 +16 1017.2 1006.5
01 17.07 Ю 4 18 км н/о +16.2 +13.7 85 +16 +16 1016.8 1006.1
02 17.07 Ю 4 16 км н/о +15.8 +13.2 85 +15 +15 1016.3 1005.6
03 17.07 ЮЗ 4 17 км н/о +15.3 +12.9 86 +14 +14 1015.8 1005.1
04 17.07 ЮЗ 4 11 км н/о +13.6 +12.0 90 +12 +12 1015.7 1004.9
05 17.07 ЮЗ 4 11 км н/о +14.3 +12.8 91 +13 +13 1015.5 1004.7
06 17.07 ЮЗ 3 20 км 5/0
[Ac trans Ci fib]
+15.4 +13.2 87 +15 +16 1015.2 1004.5 +13.6
07 17.07 ЮЗ 3 30 км 5/0
[Ac trans Ci fib]
+18.8 +15.0 79 +20 +23 1014.9 1004.3
08 17.07 ЮЗ 5 35 км 5/0
[Ac trans Ci fib]
+21.0 +13.3 61 +24 +27 комфорт 1015.1 1004.6
09 17.07 ЮЗ 4 45 км 5/0
[Ac trans Ci fib]
+21.8 +12.1 54 +24 +30 комфорт 1014.8 1004.3
10 17.07 ЮЗ 5 40 км 5/1 1500 м
[Cu hum Ac trans Ci fib]
+23.5 +11.0 45 +25 +30 комфорт 1014.5 1004.0
11 17.07 Ю 5 30 км 6/1 1500 м
[Cu hum Ci fib]
+24.0 +10.9 44 +25 +33 комфорт 1014.1 1003.7
12 17.07 Ю 3 40 км 8/1 1500 м
[Cu hum Cs]
+24.8 +11.3 43 +26 +36 жарко 1013.6 1003.3
13 17.07 Ю 5 40 км 8/1 1500 м
[Cu hum Cs]
+24.8 +10.3 40 +26 +33 жарко 1013.2 1002.9
14 17.07 Ю 5 40 км 10/1 1500 м
[Cu hum Cs]
+23.5 +10.7 44 +25 +30 комфорт 1013.0 1002.6
15 17.07 Ю 5 40 км 10/1 1500 м
[Cu hum Ac trans Cs]
+22.8 +11.8 50 +25 +28 комфорт 1012.6 1002.2
16 17.07 Ю 5 40 км 10/1 1500 м
[Cu hum As trans Cs]
+22.6 +11.9 51 +25 +27 комфорт 1012.2 1001.8
17 17.07 Ю 5 40 км 10/3 1500 м
[Cu hum Ac trans Cs]
+22.5 +11.8 51 +25 +26 комфорт 1011.7 1001.3
18 17.07 Ю 5 40 км 9/0
[Ac trans Cs]
+21.9 +11.5 52 +24 +25 комфорт 1011.6 1001.1 +25.4
19 17.07 Ю 3 40 км 9/0
[Ac trans Cs]
+21.1 +11.9 56 +23 +23 комфорт 1011.2 1000.7
20 17.07 Ю 4 40 км 8/0
[Ac trans Ci sp]
+19.6 +12.2 62 +21 +21 комфорт 1011.1 1000.6
21 17.07 Ю 4 30 км слаб. дождь 9/0
[Ac cast]
+18.4 +12.7 69 +19 +19 1011.1 1000.5
22 17.07 ЮЗ 4 40 км в посл. час дождь 9/0
[Ac As]
+17.6 +13.0 74 +17 +17 1011.0 1000.4
23 17.07 ЮЗ 3 40 км 9/0
[Ac As]
+17.1 +13.8 81 +17 +17 1011.0 1000.4
00 18.07 ЮЗ 3 30 км в посл. час дождь 10/0
[Ac As]
+16.6 +13.6 82 +16 +16 1010.9 1000.2 0.2
01 18.07 З 3 30 км в посл. час дождь н/о +15.9 +13.4 85 +15 +15 1010.4 999.8
02 18.07 З 3 26 км н/о +14.4 +12.4 88 +14 +14 1010.1 999.4
03 18.07 ЮЗ 2 20 км в посл. час дождь н/о +14.9 +13.5 91 +15 +15 1009.6 999.0
04 18.07 ЮЗ 3 13 км н/о +14.1 +12.9 92 +13 +13 1009.7 999.0
05 18.07 Ю 2 16 км н/о +14.7 +13.1 90 +14 +14 1009.2 998.5
06 18.07 ЮЗ 3 16 км н/о +15.6 +14.0 90 +15 +15 1009.1 998.4 +13.9 0.4
07 18.07 ЮЗ 4 20 км 9/1 900 м
[Sc Ac As Ci sp]
+17.0 +14.5 85 +16 +18 1009.0 998.4
08 18.07 ЮЗ 5 15 км в посл. час морось 10/10 300 м
[St]
+17.1 +14.8 86 +16 +16 1009.0 998.4
09 18.07 ЮЗ 4 3500 м дождь {морось} 10/10 120 м
[St]
+16.2 +15.7 97 +16 +16 1009.0 998.4
10 18.07 ЮЗ 5 20 км в посл. час дождь {морось} 10/10 120 м
[St]
+17.3 +16.9 97 +17 +17 1009.0 998.4
11 18.07 ЮЗ 3 30 км слаб. дождь 10/10 360 м
[Sc]
+17.3 +16.0 92 +17 +17 1009.1 998.5
12 18.07 З 3 40 км в посл. час дождь {морось} 9/9 450 м
[Cu Sc]
+19.7 +16.5 82 +22 +24 комфорт 1008.5 998.0 1
13 18.07 З 6 35 км слаб. ливневой дождь 9/5 600 м
[Cu Sc Ac As]
+18.1 +14.7 81 +18 +19 1009.0 998.4
14 18.07 СЗ 5 50 км в посл. час ливневой дождь 8/8 750 м
[Cu Sc Ac As Ci fib]
+20.4 +14.8 70 +23 +24 комфорт 1009.0 998.5
15 18.07 СЗ 5 50 км {ливн. осадки} 5/5 900 м
[Cu hum Ci sp]
+20.7 +13.2 62 +23 +26 комфорт 1009.1 998.6
16 18.07 СЗ 4 50 км 4/4 1320 м
[Cu hum Ci sp]
+22.6 +11.6 50 +25 +28 комфорт 1009.1 998.7
17 18.07 СЗ 6 50 км 3/3 1500 м
[Sc diur, vesp Ci sp]
+22.5 +10.1 45 +24 +25 комфорт 1009.3 998.9
18 18.07 СЗ 4 50 км {ливн. осадки} 8/0 2000 м
[Ac cuf]
+20.6 +10.5 52 +22 +23 комфорт 1009.8 999.4 +23.4 1
19 18.07 З 3 50 км 9/1 1500 м
[Cu hum Ac cuf]
+19.9 +10.8 56 +22 +22 комфорт 1010.2 999.7
20 18.07 З 2 50 км 9/0
[Ac trans]
+17.6 +10.3 62 +18 +18 1010.8 1000.2
21 18.07 З 2 50 км 3/0 2000 м
[Ac cuf Ci sp]
+16.1 +10.0 67 +16 +16 1011.5 1000.8
22 18.07 З 2 50 км 5/0
[Ac cuf Ci sp]
+15.9 +10.0 68 +16 +16 1011.5 1000.9
23 18.07 З 2 50 км 8/0
[Ac cuf]
+14.9 +9.9 72 +15 +15 1011.9 1001.2
00 19.07 З 3 50 км 5/5 1500 м
[Sc]
+13.9 +9.9 77 +13 +13 1012.2 1001.4
01 19.07 З 3 50 км н/о +12.2 +9.7 85 +11 +11 1012.4 1001.6
02 19.07 З 3 45 км н/о +12.1 +9.7 85 +10 +10 1012.3 1001.5
03 19.07 ЮЗ 3 40 км н/о +10.5 +8.8 89 +8 +8 1012.7 1001.8
04 19.07 ЮЗ 3 29 км н/о +10.0 +8.4 90 +8 +8 1012.4 1001.5
05 19.07 ЮЗ 3 27 км н/о +11.6 +10.6 94 +10 +10 1012.3 1001.5
06 19.07 ЮЗ 3 30 км 8/0
[Ac As Ci sp]
+12.6 +10.9 89 +11 +13 1012.8 1002.0 +9.9
07 19.07 ЮЗ 2 30 км 9/0
[Ac trans Cs]
+14.0 +11.7 86 +13 +16 1012.6 1001.9
08 19.07 Ю 3 30 км 9/0
[Ac As Cs]
+15.6 +12.2 80 +15 +18 1012.6 1001.9
09 19.07 ЮЗ 5 40 км 9/1 1200 м
[Cu hum Ac As Cs]
+18.0 +11.7 67 +18 +20 1012.3 1001.7
10 19.07 ЮЗ 6 30 км слаб. дождь 9/6 800 м
[Cu Sc Ac trans]
+18.7 +12.4 67 +19 +20 1012.1 1001.5
11 19.07 ЮЗ 6 30 км слаб. дождь 10/10 800 м
[Cu Sc]
+18.6 +11.5 63 +19 +19 1011.7 1001.1
12 19.07 Ю 6 12 км слаб. дождь 10/10 750 м
[Sc]
+17.8 +13.3 75 +17 +17 1011.2 1000.6 0.0
13 19.07 Ю 7 40 км в посл. час дождь 10/10 540 м
[Sc]
+17.7 +13.5 76 +17 +17 1011.4 1000.8
14 19.07 ЮЗ 6 40 км 10/10 480 м
[Sc]
+17.9 +13.7 76 +17 +17 1011.2 1000.6
15 19.07 ЮЗ 6 40 км {дождь} 10/10 400 м
[Sc]
+17.7 +14.3 80 +17 +17 1010.7 1000.1
17 19.07 ЮЗ 7 50 км н/о +18.2 +15.6 85 +18 +18 1009.8 999.2
18 19.07 ЮЗ 5 25 км слаб. ливневой дождь н/о +17.6 +15.9 90 +17 +17 1009.7 999.1 +19.3 0.2
19 19.07 Ю 4 12 км дождь н/о +17.3 +16.3 94 +17 +17 1009.4 998.8
20 19.07 Ю 4 12 км слаб. морось н/о +17.3 +16.6 96 +17 +17 1009.3 998.7
21 19.07 Ю 5 14 км в посл. час дождь н/о +17.5 +16.9 96 +17 +17 1009.0 998.4
22 19.07 Ю 4 8000 м ливневой дождь н/о +17.4 +16.9 97 +17 +17 1008.7 998.1
23 19.07 Ю 4 12 км в посл. час дождь н/о +17.3 +16.8 97 +17 +17 1008.3 997.7
00 20.07 Ю 4 6000 м сильн. дождь н/о +17.1 +16.7 97 +17 +17 1007.9 997.3 4
01 20.07 Ю 5 15 км дождь н/о +16.1 +15.4 96 +15 +15 1007.8 997.2
02 20.07 Ю 4 11 км дождь н/о +15.6 +15.1 97 +15 +15 1007.6 996.9
03 20.07 Ю 3 6000 м дождь н/о +15.4 +15.0 97 +15 +15 1006.1 995.5
04 20.07 Ю 4 15 км в посл. час дождь н/о +15.7 +15.4 98 +15 +15 1006.3 995.7
05 20.07 Ю 4 25 км н/о +15.7 +15.4 98 +15 +15 1006.0 995.4
06 20.07 Ю 6 21 км н/о +16.4 +16.1 98 +15 +15 1005.8 995.2 +15.4 16
07 20.07 ЮЗ 6 30 км в посл. час дождь н/о +17.1 +16.4 96 +16 +16 1005.8 995.2
08 20.07 ЮЗ 5 25 км в посл. час дождь н/о +18.0 +16.8 93 +18 +18 1005.7 995.2
09 20.07 ЮЗ 5 35 км н/о +18.2 +16.7 91 +18 +18 1005.7 995.2
10 20.07 ЮЗ 5 25 км в посл. час дождь н/о +18.7 +17.8 95 +20 +20 1005.9 995.4
11 20.07 З 8 25 км н/о +21.2 +16.9 76 +25 +25 комфорт 1005.7 995.3
12 20.07 ЮЗ 9
{13}
45 км н/о +21.7 +14.5 64 +25 +25 комфорт 1005.9 995.5 0.0
13 20.07 З 8
{13}
27 км в посл. час дождь н/о +21.0 +15.3 70 +24 +24 комфорт 1006.8 996.3
14 20.07 З 9
{14}
50 км н/о +23.5 +14.0 55 +26 +26 жарко 1006.8 996.5
15 20.07 З 9
{13}
50 км н/о +23.7 +12.9 51 +26 +26 жарко 1007.2 996.9
16 20.07 З 9
{13}
30 км н/о +23.2 +11.5 48 +26 +26 жарко 1007.9 997.6
17 20.07 З 9
{13}
35 км н/о +23.0 +12.5 52 +26 +26 жарко 1008.6 998.2
18 20.07 З 8 30 км н/о +22.0 +13.0 57 +25 +25 комфорт 1009.6 999.2 +24.4 0.0
19 20.07 З 7 40 км н/о +20.1 +13.2 64 +22 +22 комфорт 1010.6 1000.1
20 20.07 СЗ 3 45 км н/о +18.4 +14.5 78 +19 +19 1012.0 1001.4
21 20.07 З 3 45 км в посл. час дождь н/о +17.7 +14.8 83 +18 +18 1013.0 1002.4
22 20.07 З 3 50 км н/о +15.5 +13.6 88 +15 +15 1013.8 1003.1
23 20.07 З 4 50 км н/о +17.2 +14.2 83 +17 +17 1014.6 1003.9
00 21.07 СЗ 3 50 км н/о +15.8 +13.6 87 +15 +15 1015.2 1004.5 0.0
01 21.07 З 2 40 км н/о +13.6 +11.1 85 +13 +13 1015.8 1005.0
02 21.07 З 2 30 км н/о +12.2 +10.8 91 +11 +11 1016.4 1005.6
03 21.07 ЮЗ 2 45 км н/о +12.7 +12.2 97 +12 +12 1016.9 1006.0
04 21.07 ЮЗ 3 28 км н/о +10.8 +10.3 97 +9 +9 1017.4 1006.4
05 21.07 ЮЗ 3 30 км н/о +11.1 +10.8 98 +9 +9 1018.1 1007.2
06 21.07 З 3 17 км н/о +13.1 +12.2 94 +12 +12 1019.0 1008.1 +10.2 0.0
07 21.07 ЮЗ 4 45 км н/о +14.9 +12.9 88 +14 +14 1019.6 1008.8
08 21.07 З 4 35 км н/о +16.9 +13.0 78 +17 +17 1019.7 1009.0
09 21.07 ЮЗ 4 29 км н/о +19.2 +13.9 71 +21 +21 комфорт 1019.9 1009.2
10 21.07 ЮЗ 4 40 км в посл. час дождь н/о +19.9 +10.9 56 +21 +21 комфорт 1020.2 1009.5
11 21.07 ЮЗ 5 30 км н/о +21.2 +11.2 53 +23 +23 комфорт 1020.3 1009.8
12 21.07 ЮЗ 5 40 км н/о +21.4 +10.7 50 +23 +23 комфорт 1020.7 1010.1 0.0
13 21.07 З 6 40 км н/о +21.3 +12.2 56 +23 +23 комфорт 1020.7 1010.2
14 21.07 ЮЗ 6 45 км н/о +22.8 +12.3 52 +26 +26 жарко 1020.6 1010.1
15 21.07 ЮЗ 5 40 км н/о +22.3 +12.5 54 +25 +25 комфорт 1020.6 1010.1
16 21.07 ЮЗ 5 40 км н/о +22.1 +11.9 52 +24 +24 комфорт 1020.4 1009.9
17 21.07 ЮЗ 6 45 км н/о +22.6 +12.3 52 +25 +25 комфорт 1020.0 1009.5
18 21.07 ЮЗ 5 50 км н/о +21.6 +12.6 57 +24 +24 комфорт 1020.3 1009.8 +23.3 0.0
19 21.07 ЮЗ 5 50 км н/о +20.4 +12.7 61 +22 +22 комфорт 1020.4 1009.8
20 21.07 ЮЗ 3 45 км н/о +19.0 +13.2 69 +20 +20 1020.8 1010.1
21 21.07 Ю 3 50 км н/о +18.2 +13.4 74 +19 +19 1021.2 1010.6
22 21.07 Ю 4 50 км н/о +17.8 +13.0 73 +18 +18 1021.1 1010.4
23 21.07 ЮЗ 4 50 км н/о +17.1 +12.9 76 +17 +17 1021.0 1010.3
00 22.07 ЮЗ 4 45 км н/о +16.0 +12.6 80 +15 +15 1020.9 1010.2
01 22.07 ЮЗ 5 45 км н/о +15.3 +12.5 83 +14 +14 1020.5 1009.8
02 22.07 ЮЗ 6 40 км н/о +14.8 +13.0 89 +13 +13 1020.3 1009.5
03 22.07 ЮЗ 6 25 км н/о +14.9 +13.3 90 +13 +13 1020.5 1009.7
04 22.07 ЮЗ 4 20 км н/о +14.7 +13.4 92 +13 +13 1020.4 1009.6
05 22.07 ЮЗ 4 16 км н/о +15.2 +14.0 93 +14 +14 1020.2 1009.4
06 22.07 ЮЗ 6 30 км 8/0
[Ac As]
+17.0 +15.0 88 +16 +16 1020.3 1009.6 +14.5
07 22.07 ЮЗ 7 30 км 6/1 900 м
[Sc Ac trans Ci fib]
+19.6 +15.8 79 +21 +22 комфорт 1020.4 1009.7
08 22.07 ЮЗ 7 35 км 6/1 600 м
[Cu Sc Ac trans Ci fib]
+21.8 +17.0 74 +26 +27 душно 1020.9 1010.4
09 22.07 З 8 40 км 5/1 720 м
[Cu Sc Ac trans Ci fib]
+22.0 +16.5 71 +26 +28 душно 1021.1 1010.6
10 22.07 З 6 40 км 4/1 840 м
[Cu hum Ci fib]
+23.7 +16.5 64 +27 +31 жарко 1021.2 1010.7
11 22.07 З 8 40 км 4/1 960 м
[Cu hum Ci fib]
+25.1 +17.0 61 +29 +32 душно 1020.8 1010.4
12 22.07 ЮЗ 8 40 км 4/1 1050 м
[Cu hum Ci sp]
+25.8 +17.3 59 +30 +33 душно 1020.8 1010.4
13 22.07 ЮЗ 6 40 км 4/1 1140 м
[Cu hum Ci fib]
+26.4 +17.4 58 +31 +35 душно 1020.6 1010.2
14 22.07 ЮЗ 6 40 км 3/1 1200 м
[Cu hum Ci sp]
+27.3 +17.4 55 +31 +36 душно 1020.4 1010.1
15 22.07 ЮЗ 6 40 км 1/1 1200 м
[Cu hum Ci fib]
+27.7 +18.3 57 +33 +36 очень
душно
1020.3 1009.9
16 22.07 ЮЗ 6 40 км 1/1 1260 м
[Cu hum Ci fib]
+28.3 +18.5 55 +33 +36 очень
душно
1019.8 1009.5
17 22.07 ЮЗ 6 35 км н/о +27.4 +17.6 55 +32 +32 очень
душно
1019.7 1009.4
18 22.07 ЮЗ 6 30 км н/о +26.5 +17.8 59 +31 +31 душно 1019.9 1009.5 +28.3
20 22.07 Ю 3 40 км н/о +23.6 +17.8 70 +28 +28 душно 1020.5 1010.0
21 22.07 Ю 4 35 км н/о +22.0 +17.6 76 +27 +27 душно 1020.7 1010.2
22 22.07 З 3 28 км н/о +19.8 +17.3 86 +23 +23 комфорт 1021.3 1010.6

 

Местоположение метеостанции Уоттишам (Великобритания): широта 52.12 долгота 0.97 высота над уровнем моря 89 м.

В архиве по умолчанию представлена погода в Уоттишаме за последнюю неделю. Архивные данные за месяц целиком и за предыдущие месяцы, начиная с января 2011 года, Вы можете получить, выбрав интересующий диапазон дат из раскрывающегося списка и нажав кнопку "Ввод!".


*Определитесь, кто Вы:
робот инопланетянин человек

Внимание! Время в таблицах - всемирное. Для получения местного времени необходимо прибавить поправку, которая равна 0 ч.

Смотрите также архив погоды в соседних городах и на ближайших метеорологических станциях:

Погода на Аэродроме Andrewsfield (Великобритания) (45 км)
Погода в Ротамстеде (Великобритания) (55 км)
Погода в Шоберинессе (Великобритания) (64 км)
Погода в Мархеме (Великобритания) (65 км)
Погода в Грейвзенде (Великобритания) (86 км)
Погода в Кент (Великобритания) (90 км)
Погода в Уэйборне (Великобритания) (93 км)
Погода в Бедфорде (Великобритания) (100 км)
Погода в Холбиче (Великобритания) (100 км)
Погода в Лондоне (Великобритания) (102 км)

Пояснения к столбцам:

Ветер - указаны скорость ветра в м/с - средняя за 10 мин, порывы в срок и между сроками (в фигурных скобках) и направление, откуда дует ветер: С - северный, СВ - северо-восточный, В - восточный, ЮВ - юго-восточный, Ю - южный, ЮЗ - юго-западный, З - западный, СЗ - северо-западный.
Видимость - горизонтальная дальность видимости в метрах или километрах. При видимости от 1 до 10 км при отсутствии осадков обычно наблюдается дымка, при ухудшении видимости до 1 км и менее - туман. В сухую погоду видимость может ухудшаться дымом, пылью или мглою.
Явления - указаны атмосферные явления, наблюдавшиеся в срок или в последний час перед сроком; фигурными скобками обозначены явления, наблюдавшиеся между сроками (за 1-3 часа до срока); квадратными скобками обозначены град или гололедные отложения с указанием их диаметра в мм.
Облачность - указаны через наклонную черту общая и нижняя облачность в баллах и высота нижней границы облаков в метрах; квадратными скобками обозначены формы облаков: Ci - перистые, Cs - перисто-слоистые, Cc - перисто-кучевые, Ac - высококучевые, As - высокослоистые, Sc - слоисто-кучевые, Ns - слоисто-дождевые, Cu - кучевые, Cb - кучево-дождевые. Подробнее классификацию облаков см. в Атласе облаков (PDF).
T - Температура воздуха - температура, измеренная на высоте 2 м над землей.
Td - Температура точки росы - температура, при понижении до которой содержащийся в воздухе водяной пар достигнет насыщения.
f - Относительная влажность воздуха - влажноcть воздуха, измеренная на высоте 2 м над землей.
Te - Эффективная температура - температура, которую ощущает одетый по сезону человек в тени. Характеристика душности погоды. При расчете учитывается влияние влажности воздуха и скорости ветра на теплоощущения человека.
Tes - Эффективная температура на солнце - температура, которую ощущает человек, с поправкой на солнечный нагрев. Характеристика знойности погоды. Зависит от высоты солнца над горизонтом, облачности и скорости ветра. Ночью, в пасмурную погоду, а также при ветре 12 м/с и более поправка равна нулю.
P - Атмосферное давление - приведенное к уровню моря атмосферное давление.
Po - Атмосферное давление - измеренное на уровне метеостанции атмосферное давление.
Tmin - Минимальная температура - минимум температуры воздуха на высоте 2 м над землей.
Tmax - Максимальная температура - максимум температуры воздуха на высоте 2 м над землей.
R - Количество осадков - Количество выпавших осадков за период времени, мм. При наведении курсора мыши на число - период времени, за который выпало указанное количество осадков.
R24 - Количество осадков - Количество выпавших осадков за 24 часа, мм.
S - Снежный покров - Высота снежного покрова, см. При наведении курсора мыши на число - состояние снежного покрова и степень покрытия местности в баллах.